Location: Castillon
(43.0896°N, 0.2156°E)
Time: 20:06:08
(UTC+00:00)

Meteor 2-10 - Pass Details

Date: 16 June 2021
Orbit: 738 x 868 km, 81.2° (Epoch: 02 August)

Event Time Altitude Azimuth Distance (km) Brightness Sun altitude
Rises 20:34:43 0° 347° (NNW) 3,184 8.2 -8.5°
Reaches altitude 10° 20:37:02 10° 346° (NNW) 2,260 7.4 -8.8°
Maximum altitude 20:42:04 73° 262° (W) 786 4.2 -9.5°
Drops below altitude 10° 20:47:11 10° 179° (S) 2,289 6.0 -10.1°
Enters shadow 20:48:24 - 178° (S) 2,773 6.4 -10.3°
